Simultaneous Nadir Overpasses (SNOs) Predictions

Prediction of SNOs between METOP-C and LANDSAT-8 Satellite Orbit:

Table of predicted SNOs for the next 14.0 days since TLE Epoch: 7/15/2023
Index Date (METOP-C) Time (METOP-C) Lat,Lon (METOP-C) SZA (METOP-C ) Date (LANDSAT-8) Time (LANDSAT-8) Lat,Lon (LANDSAT-8) SZA (LANDSAT-8 ) Distance(km) Time Diff (sec)
1 07/15/2023 12:08:55 81.18, 38.59 61.75 07/15/2023 12:09:11 81.18, 38.67 61.77 1.43 16
2 07/15/2023 12:59:35 -81.21,-153.38 118.16 07/15/2023 12:58:37 -81.20,-153.41 118.19 0.96 58
3 07/18/2023 07:43:14 81.19, 105.03 62.22 07/18/2023 07:43:25 81.18, 105.10 62.23 1.30 11
4 07/18/2023 08:33:53 -81.22, -86.55 117.65 07/18/2023 08:32:50 -81.22, -86.59 117.68 0.80 63
5 07/21/2023 03:17:33 81.20, 171.84 62.77 07/21/2023 03:17:39 81.19, 171.72 62.76 2.14 6
6 07/21/2023 04:08:13 -81.22, -20.13 117.14 07/21/2023 04:07:05 -81.21, -20.32 117.19 3.27 68
7 07/23/2023 22:01:14 -81.19, 70.65 116.72 07/23/2023 22:02:27 -81.19, 70.47 116.71 3.04 73
8 07/23/2023 22:51:53 81.20,-121.75 63.33 07/23/2023 22:51:53 81.19,-121.85 63.31 1.93 0
9 07/23/2023 23:42:22 -81.31, 50.53 116.06 07/23/2023 23:41:08 -81.43, 50.32 116.04 13.72 74
10 07/26/2023 17:35:34 -81.18, 136.65 116.17 07/26/2023 17:36:40 -81.18, 136.74 116.13 1.59 66



Historial Predications of SNOs between METOP-C and LANDSAT-8
